RYR0599 LEBL-LEMH

Flight info

Callsign RYR0599
Flight time 0h 34m
Altitude 19000
Route DUNES Q700 SARGO
Aircraft B38M/M-SDE1FGHILORVWXY/HB1

Departure

Time 2026-05-05 12:33
Airport Josep Tarradellas Barcelona-El Prat Airport (LEBL)

Arrival

Time 2026-05-05 13:07
Airport Menorca Airport (LEMH)
Time Latitude Longitude Altitude Speed Heading
2026-05-05 12:14 41.30226 2.07980 23 ft 0 kts 14°
2026-05-05 12:20 41.30217 2.07977 23 ft 2 kts
2026-05-05 12:20 41.30199 2.07976 22 ft 2 kts 346°
2026-05-05 12:20 41.30184 2.07983 24 ft 2 kts 317°
2026-05-05 12:20 41.30173 2.07995 22 ft 2 kts 294°
2026-05-05 12:21 41.30166 2.08011 23 ft 2 kts 272°
2026-05-05 12:21 41.30163 2.08025 21 ft 2 kts 270°
2026-05-05 12:21 41.30163 2.08040 23 ft 2 kts 266°
2026-05-05 12:21 41.30165 2.08054 22 ft 2 kts 252°
2026-05-05 12:22 41.30166 2.08056 22 ft 0 kts 249°
2026-05-05 12:27 41.30160 2.08038 22 ft 4 kts 244°
2026-05-05 12:27 41.30135 2.07987 21 ft 8 kts 222°
2026-05-05 12:28 41.30072 2.07949 20 ft 10 kts 185°
2026-05-05 12:28 41.30003 2.07933 21 ft 11 kts 218°
2026-05-05 12:28 41.29958 2.07850 19 ft 11 kts 244°
2026-05-05 12:28 41.29920 2.07743 19 ft 14 kts 244°
2026-05-05 12:29 41.29882 2.07635 18 ft 14 kts 245°
2026-05-05 12:29 41.29845 2.07527 18 ft 13 kts 245°
2026-05-05 12:29 41.29810 2.07428 18 ft 13 kts 245°
2026-05-05 12:29 41.29772 2.07316 19 ft 13 kts 246°
2026-05-05 12:30 41.29740 2.07220 19 ft 10 kts 246°
2026-05-05 12:30 41.29711 2.07133 19 ft 9 kts 245°
2026-05-05 12:30 41.29685 2.07060 19 ft 9 kts 240°
2026-05-05 12:30 41.29628 2.07060 17 ft 11 kts 150°
2026-05-05 12:31 41.29576 2.07098 17 ft 9 kts 155°
2026-05-05 12:31 41.29552 2.07111 18 ft 0 kts 157°
2026-05-05 12:31 41.29549 2.07113 17 ft 2 kts 157°
2026-05-05 12:31 41.29520 2.07130 18 ft 7 kts 148°
2026-05-05 12:32 41.29489 2.07190 19 ft 8 kts 98°
2026-05-05 12:32 41.29495 2.07222 21 ft 0 kts 67°
2026-05-05 12:32 41.29511 2.07269 22 ft 23 kts 64°
2026-05-05 12:32 41.29699 2.07823 20 ft 108 kts 65°
2026-05-05 12:33 41.30099 2.08991 243 ft 154 kts 66°
2026-05-05 12:33 41.30571 2.10341 1077 ft 166 kts 68°
2026-05-05 12:33 41.31052 2.11757 2023 ft 171 kts 67°
2026-05-05 12:33 41.31561 2.13253 2797 ft 185 kts 66°
2026-05-05 12:34 41.32121 2.14906 3573 ft 205 kts 65°
2026-05-05 12:34 41.32748 2.16713 4129 ft 226 kts 63°
2026-05-05 12:34 41.33676 2.18488 4189 ft 243 kts 49°
2026-05-05 12:34 41.34808 2.20244 4279 ft 257 kts 49°
2026-05-05 12:35 41.36015 2.22112 4362 ft 272 kts 49°
2026-05-05 12:35 41.37263 2.24032 4450 ft 278 kts 49°
2026-05-05 12:35 41.38540 2.25991 4480 ft 281 kts 49°
2026-05-05 12:35 41.39821 2.27953 4464 ft 280 kts 49°
2026-05-05 12:36 41.40900 2.30114 4981 ft 279 kts 70°
2026-05-05 12:36 41.41430 2.32557 6344 ft 276 kts 77°
2026-05-05 12:36 41.41949 2.35083 7291 ft 288 kts 76°
2026-05-05 12:36 41.42502 2.37710 8263 ft 297 kts 76°
2026-05-05 12:37 41.43067 2.40367 9358 ft 302 kts 76°
2026-05-05 12:37 41.43654 2.43109 10254 ft 312 kts 76°
2026-05-05 12:37 41.44255 2.45908 10978 ft 326 kts 76°
2026-05-05 12:37 41.44901 2.48910 11699 ft 339 kts 76°
2026-05-05 12:38 41.45548 2.51928 12568 ft 344 kts 77°
2026-05-05 12:38 41.46216 2.55051 13550 ft 349 kts 77°
2026-05-05 12:38 41.46887 2.58184 14316 ft 355 kts 77°
2026-05-05 12:38 41.47562 2.61346 15080 ft 361 kts 77°
2026-05-05 12:39 41.48255 2.64597 15805 ft 368 kts 77°
2026-05-05 12:39 41.48960 2.67908 16526 ft 374 kts 77°
2026-05-05 12:39 41.49682 2.71307 17254 ft 380 kts 77°
2026-05-05 12:39 41.50405 2.74721 18000 ft 384 kts 77°
2026-05-05 12:40 41.50984 2.78191 18717 ft 382 kts 90°
2026-05-05 12:40 41.50940 2.81716 18962 ft 380 kts 98°
2026-05-05 12:40 41.50816 2.85186 18930 ft 379 kts 97°
2026-05-05 12:40 41.50596 2.88675 18921 ft 373 kts 108°
2026-05-05 12:41 41.49701 2.91822 18931 ft 358 kts 128°
2026-05-05 12:41 41.48153 2.94315 18934 ft 343 kts 147°
2026-05-05 12:41 41.46219 2.96074 18931 ft 332 kts 162°
2026-05-05 12:41 41.44102 2.97248 18933 ft 328 kts 167°
2026-05-05 12:42 41.41957 2.98229 18933 ft 326 kts 169°
2026-05-05 12:42 41.39780 2.99095 18931 ft 325 kts 171°
2026-05-05 12:42 41.37604 2.99876 18933 ft 324 kts 172°
2026-05-05 12:42 41.35411 3.00613 18945 ft 324 kts 173°
2026-05-05 12:43 41.33226 3.01323 18937 ft 324 kts 173°
2026-05-05 12:43 41.31027 3.02023 18926 ft 324 kts 173°
2026-05-05 12:43 41.28836 3.02710 18931 ft 324 kts 174°
2026-05-05 12:43 41.26632 3.03395 18937 ft 324 kts 174°
2026-05-05 12:44 41.24438 3.04075 18928 ft 325 kts 174°
2026-05-05 12:44 41.22232 3.04756 18932 ft 325 kts 174°
2026-05-05 12:44 41.20037 3.05433 18933 ft 325 kts 174°
2026-05-05 12:44 41.17839 3.06111 18934 ft 325 kts 174°
2026-05-05 12:45 41.15631 3.06791 18933 ft 325 kts 174°
2026-05-05 12:45 41.14176 3.07238 18930 ft 325 kts 174°
2026-05-05 12:45 41.11227 3.08145 18931 ft 325 kts 174°
2026-05-05 12:45 41.09760 3.08596 18931 ft 325 kts 174°
2026-05-05 12:46 41.07565 3.09270 18932 ft 325 kts 174°
2026-05-05 12:46 41.05357 3.09948 18930 ft 325 kts 174°
2026-05-05 12:46 41.03151 3.10625 18930 ft 326 kts 174°
2026-05-05 12:46 41.00941 3.11302 18936 ft 326 kts 174°
2026-05-05 12:47 40.98727 3.11981 18931 ft 326 kts 174°
2026-05-05 12:47 40.96523 3.12655 18930 ft 326 kts 174°
2026-05-05 12:47 40.94306 3.13333 18928 ft 326 kts 174°
2026-05-05 12:47 40.92096 3.14009 18931 ft 326 kts 174°
2026-05-05 12:48 40.89892 3.14683 18933 ft 326 kts 174°
2026-05-05 12:48 40.87725 3.15657 18926 ft 336 kts 158°
2026-05-05 12:48 40.85866 3.17640 18932 ft 352 kts 137°
2026-05-05 12:48 40.84486 3.20347 18939 ft 361 kts 127°
2026-05-05 12:49 40.83208 3.23216 18930 ft 362 kts 127°
2026-05-05 12:49 40.81944 3.26088 18935 ft 362 kts 126°
2026-05-05 12:49 40.80692 3.28961 18933 ft 362 kts 126°
2026-05-05 12:49 40.79436 3.31856 18929 ft 363 kts 126°
2026-05-05 12:50 40.78181 3.34752 18934 ft 363 kts 126°
2026-05-05 12:50 40.76931 3.37638 18936 ft 363 kts 126°
2026-05-05 12:50 40.75681 3.40523 18934 ft 363 kts 126°
2026-05-05 12:50 40.74423 3.43422 18934 ft 363 kts 126°
2026-05-05 12:51 40.73171 3.46307 18930 ft 363 kts 126°
2026-05-05 12:51 40.71911 3.49206 18932 ft 363 kts 126°
2026-05-05 12:51 40.70657 3.52089 18931 ft 363 kts 126°
2026-05-05 12:51 40.69397 3.54983 18931 ft 363 kts 126°
2026-05-05 12:52 40.68142 3.57863 18932 ft 363 kts 126°
2026-05-05 12:52 40.66879 3.60756 18933 ft 363 kts 126°
2026-05-05 12:52 40.65623 3.63634 18933 ft 363 kts 126°
2026-05-05 12:52 40.64365 3.66512 18934 ft 363 kts 126°
2026-05-05 12:53 40.63101 3.69401 18931 ft 363 kts 126°
2026-05-05 12:53 40.61872 3.72212 18927 ft 349 kts 126°
2026-05-05 12:53 40.60673 3.74945 18829 ft 340 kts 127°
2026-05-05 12:53 40.59494 3.77634 18563 ft 339 kts 127°
2026-05-05 12:54 40.57154 3.82960 17844 ft 338 kts 126°
2026-05-05 12:54 40.55966 3.85661 17456 ft 335 kts 126°
2026-05-05 12:54 40.54821 3.88261 17089 ft 331 kts 126°
2026-05-05 12:55 40.53659 3.90898 16708 ft 328 kts 126°
2026-05-05 12:55 40.52537 3.93444 16363 ft 324 kts 126°
2026-05-05 12:55 40.51417 3.95984 16030 ft 319 kts 127°
2026-05-05 12:55 40.50045 3.98226 15459 ft 310 kts 147°
2026-05-05 12:56 40.48302 3.99894 14794 ft 312 kts 156°
2026-05-05 12:56 40.46377 4.01138 14166 ft 309 kts 160°
2026-05-05 12:56 40.44444 4.02389 13536 ft 309 kts 159°
2026-05-05 12:56 40.42541 4.03647 12868 ft 305 kts 158°
2026-05-05 12:57 40.40657 4.04904 12220 ft 301 kts 158°
2026-05-05 12:57 40.38813 4.06141 11620 ft 296 kts 157°
2026-05-05 12:57 40.37001 4.07358 11025 ft 291 kts 157°
2026-05-05 12:57 40.35208 4.08563 10445 ft 287 kts 157°
2026-05-05 12:58 40.33441 4.09750 9876 ft 283 kts 156°
2026-05-05 12:58 40.31694 4.10924 9254 ft 281 kts 156°
2026-05-05 12:58 40.29969 4.12083 8653 ft 277 kts 156°
2026-05-05 12:58 40.28269 4.13223 8144 ft 271 kts 156°
2026-05-05 12:59 40.26616 4.14332 7674 ft 264 kts 156°
2026-05-05 12:59 40.25001 4.15414 7233 ft 257 kts 156°
2026-05-05 12:59 40.23426 4.16469 6788 ft 251 kts 156°
2026-05-05 13:00 40.20374 4.18513 5925 ft 242 kts 156°
2026-05-05 13:00 40.18892 4.19504 5538 ft 235 kts 156°
2026-05-05 13:01 40.14626 4.22357 4488 ft 226 kts 156°
2026-05-05 13:01 40.13244 4.23280 4266 ft 220 kts 156°
2026-05-05 13:01 40.11897 4.24179 4044 ft 214 kts 156°
2026-05-05 13:01 40.10587 4.25053 3805 ft 210 kts 156°
2026-05-05 13:02 40.09314 4.25903 3558 ft 206 kts 156°
2026-05-05 13:02 40.08003 4.26614 3293 ft 198 kts 175°
2026-05-05 13:02 40.06669 4.26482 3072 ft 191 kts 192°
2026-05-05 13:02 40.05395 4.26155 2844 ft 187 kts 193°
2026-05-05 13:03 40.04115 4.25802 2608 ft 184 kts 193°
2026-05-05 13:03 40.02888 4.25449 2407 ft 181 kts 193°
2026-05-05 13:03 40.01654 4.25083 2230 ft 184 kts 194°
2026-05-05 13:03 40.00396 4.24756 2030 ft 184 kts 189°
2026-05-05 13:04 39.99134 4.24510 1914 ft 181 kts 190°
2026-05-05 13:04 39.97911 4.24261 1871 ft 175 kts 190°
2026-05-05 13:04 39.96728 4.24013 1882 ft 171 kts 189°
2026-05-05 13:04 39.95561 4.23712 1881 ft 166 kts 196°
2026-05-05 13:05 39.94473 4.23382 1762 ft 154 kts 192°
2026-05-05 13:05 39.93469 4.23151 1602 ft 139 kts 190°
2026-05-05 13:05 39.92547 4.22971 1427 ft 132 kts 189°
2026-05-05 13:05 39.91645 4.22804 1246 ft 130 kts 189°
2026-05-05 13:06 39.90764 4.22645 1066 ft 125 kts 189°
2026-05-05 13:06 39.89906 4.22489 889 ft 125 kts 189°
2026-05-05 13:06 39.89033 4.22330 716 ft 128 kts 191°
2026-05-05 13:06 39.88142 4.22167 532 ft 129 kts 188°
2026-05-05 13:07 39.87272 4.22012 362 ft 121 kts 187°
2026-05-05 13:07 39.86516 4.21880 306 ft 99 kts 188°
2026-05-05 13:07 39.86143 4.21819 304 ft 32 kts 186°
2026-05-05 13:07 39.85895 4.21789 306 ft 30 kts 185°
2026-05-05 13:08 39.85699 4.21762 297 ft 26 kts 182°
2026-05-05 13:08 39.85540 4.21799 292 ft 23 kts 163°
2026-05-05 13:08 39.85453 4.21910 285 ft 16 kts 57°
2026-05-05 13:08 39.85538 4.21955 288 ft 13 kts
2026-05-05 13:09 39.85628 4.21974 293 ft 13 kts
2026-05-05 13:09 39.85720 4.21993 296 ft 14 kts
2026-05-05 13:09 39.85814 4.22014 296 ft 14 kts
2026-05-05 13:09 39.85913 4.22035 300 ft 15 kts
2026-05-05 13:10 39.86015 4.22057 298 ft 15 kts
2026-05-05 13:10 39.86104 4.22076 297 ft 10 kts
2026-05-05 13:10 39.86179 4.22112 301 ft 12 kts 52°
2026-05-05 13:10 39.86185 4.22204 292 ft 9 kts 95°
2026-05-05 13:11 39.86223 4.22267 291 ft 10 kts
2026-05-05 13:11 39.86303 4.22282 293 ft 13 kts
2026-05-05 13:11 39.86371 4.22307 294 ft 8 kts 54°
2026-05-05 13:11 39.86372 4.22379 289 ft 10 kts 99°
2026-05-05 13:12 39.86370 4.22393 289 ft 0 kts 99°